Greenville, ME

9:16 AM EST on November 12, 2019 (GMT -0500)
Greenville

Weather History for KGNR - September, 2019

Change the Weather History Date:

Monday, September 23, 2019

  Actual Average (KMLT) Record (KMLT)
Temperature  
Mean Temperature 68 °F -  
Max Temperature 72 °F 64 °F 91 °F (1914)
Min Temperature 64 °F 43 °F 25 °F (1904)
Cooling Degree Days 3    
Growing Degree Days 18 (Base 50)    
Moisture  
Dew Point 63 °F    
Average Humidity 82    
Maximum Humidity 100    
Minimum Humidity 66    
Precipitation  
Precipitation 0.26 in - - ()
Sea Level Pressure  
Sea Level Pressure 29.68 in    
Wind  
Wind Speed 1 mph ()    
Max Wind Speed 4 mph    
Max Gust Speed -    
Averages and records for this station are not official NWS values.
T = Trace of Precipitation, MM = Missing Value Source: Averaged Metar Reports

Daily Weather History Graph

Daily Weather History Graph

Search for Another Location

Airport or City:

Astronomy

Sep. 23, 2019 Rise Set
Actual Time 6:26 AM EDT 6:34 PM EDT
Civil Twilight 5:56 AM EDT 7:03 PM EDT
Nautical Twilight 5:21 AM EDT 7:38 PM EDT
Astronomical Twilight 4:46 AM EDT 8:13 PM EDT
Moon No Moon Rise 3:43 PM EDT (9/23)
Length of Visible Light 13h 07m
Length of Day
12h 08m
Waning Crescent, 33% of the Moon is Illuminated
Sep 23
Waning Crescent
Sep 28
New
Oct 5
First Quarter
Oct 13
Full
Oct 21
Last Quarter

Hourly Weather History & Observations

Time (EDT) Temp. Dew Point Humidity Pressure Visibility Wind Dir Wind Speed Gust Speed Precip Events Conditions
12:56 AM 68.0 °F 60.1 °F 76% 29.77 in - Variable 3.5 mph - N/A   Unknown
1:56 AM 66.9 °F 60.1 °F 79% 29.75 in - Calm Calm - N/A   Unknown
2:56 AM 69.1 °F 61.0 °F 75% 29.73 in - Calm Calm - N/A   Unknown
3:56 AM 69.1 °F 61.0 °F 75% 29.71 in - Variable 3.5 mph - N/A   Unknown
4:56 AM 66.9 °F 61.0 °F 81% 29.70 in - Calm Calm - N/A   Unknown
5:56 AM 66.0 °F 61.0 °F 84% 29.70 in - Calm Calm - N/A   Unknown
6:56 AM 71.1 °F 61.0 °F 70% 29.70 in - Calm Calm - N/A   Unknown
7:56 AM 72.0 °F 60.1 °F 66% 29.69 in - Variable 3.5 mph - N/A   Unknown
8:56 AM 71.1 °F 60.1 °F 68% 29.69 in - NW 3.5 mph - N/A   Unknown
9:56 AM 72.0 °F 60.1 °F 66% 29.69 in - Calm Calm - N/A   Unknown
10:56 AM 71.1 °F 61.0 °F 70% 29.68 in - Calm Calm - N/A   Unknown
11:56 AM 70.0 °F 64.0 °F 81% 29.68 in - Calm Calm - N/A   Unknown
12:56 PM 70.0 °F 64.9 °F 84% 29.66 in - Variable 3.5 mph - N/A   Unknown
1:56 PM 70.0 °F 64.0 °F 81% 29.66 in - SSW 3.5 mph - N/A   Unknown
2:56 PM 70.0 °F 64.9 °F 84% 29.65 in - Calm Calm - N/A   Unknown
3:56 PM 68.0 °F 66.0 °F 93% 29.66 in - Variable 3.5 mph - 0.04 in   Unknown
4:56 PM 66.9 °F 64.9 °F 93% 29.66 in - Calm Calm - N/A   Unknown
5:56 PM 68.0 °F 64.9 °F 90% 29.66 in - Variable 3.5 mph - N/A   Unknown
6:56 PM 66.9 °F 64.0 °F 90% 29.66 in - Variable 3.5 mph - N/A   Unknown
7:56 PM 66.9 °F 64.0 °F 90% 29.66 in - Calm Calm - N/A   Unknown
8:56 PM 66.0 °F 64.0 °F 93% 29.65 in - Calm Calm - N/A   Unknown
9:56 PM 66.0 °F 63.0 °F 90% 29.63 in - NNE 3.5 mph - N/A   Unknown
10:56 PM 64.4 °F 62.6 °F 94% 29.62 in - Calm Calm - N/A   Unknown
11:00 PM - - N/A% - - North - - N/A   Unknown
11:56 PM 64.0 °F 64.0 °F 100% 29.62 in - Calm Calm - 0.22 in   Unknown